Location: ?????????
(54.7630°N, 39.4991°E)
Time: 15:22:59
(UTC+00:00)

Cosmos 1766 - Pass Details

Date: 14 April 2026
Orbit: 402 x 407 km, 82.5° (Epoch: 17 May)

Event Time Altitude Azimuth Distance (km) Brightness Sun altitude
Rises 23:47:53 0° 347° (NNW) 2,343 7.1 -18.7°
Reaches altitude 10° 23:49:55 10° 347° (NNW) 1,479 6.0 -18.5°
Maximum altitude 23:53:07 83° 260° (W) 418 2.6 -18.2°
Enters shadow 23:53:36 61° 183° (S) 468 2.7 -18.1°
